This demonstration page uses our WeatherBlox Daily Observations layout. Learn more.

Left ArrowRight Arrow

39.51506, -84.39828

Hourly Observations for July 12, 2015

Temp ( °F °C ) Dew Point ( °F °C ) Humidity (%) Winds ( mph kmh ) Pressure ( in mb ) Visibility ( mi km ) Precip ( " mm )
12:15 am 00:15 Clear 69 20.8 65 18.5 87 87 N N/A 30.06 1018 7 11 N/A
12:35 am 00:35 Clear 69 20.8 65 18.6 87 87 N N/A 30.06 1018 7 11 N/A
12:55 am 00:55 Partly Cloudy with Mist and Fog 69 20.8 66 18.7 88 88 N N/A 30.09 1019 5 8 N/A
1:15 am 01:15 Mostly Cloudy 69 20.8 66 18.7 88 88 N N/A 30.06 1018 7 11 N/A
1:35 am 01:35 Mostly Cloudy 69 20.8 65 18.6 87 87 N N/A 30.09 1019 7 11 N/A
1:55 am 01:55 Partly Cloudy 69 20.8 66 18.7 88 88 N N/A 30.06 1018 7 11 N/A
2:15 am 02:15 Clear 69 20.8 66 18.7 88 88 N N/A 30.06 1018 7 11 N/A
2:35 am 02:35 Clear 69 20.8 66 18.7 88 88 N N/A 30.06 1018 7 11 N/A
2:55 am 02:55 Clear 69 20.8 66 18.7 88 88 N N/A 30.03 1017 7 11 N/A
3:15 am 03:15 Partly Cloudy 69 20.8 65 18.6 87 87 N N/A 30.03 1017 7 11 N/A
3:35 am 03:35 Partly Cloudy 69 20.8 66 18.7 88 88 N N/A 30.03 1017 7 11 N/A
3:55 am 03:55 Mostly Cloudy with Light Rain 69 20.8 66 18.8 88 88 N N/A 30.03 1017 7 11 N/A
4:15 am 04:15 Mostly Cloudy with Light Rain 69 20.8 66 19 90 90 N N/A 30.03 1017 7 11 N/A
4:35 am 04:35 Mostly Cloudy with Light Rain 69 20.8 66 18.7 88 88 N N/A 30.03 1017 7 11 N/A
4:55 am 04:55 Cloudy with Rain 70 20.9 65 18.6 87 87 N N/A 30.03 1017 5 8 N/A
5:15 am 05:15 Cloudy with Heavy Rain 70 20.9 66 18.7 87 87 N N/A 30.03 1017 4 6 N/A
5:35 am 05:35 Cloudy with Rain 69 20.8 66 18.7 88 88 N N/A 30.03 1017 5 8 N/A
5:55 am 05:55 Cloudy with Rain 69 20.8 66 18.7 88 88 SSW 5 7 30.03 1017 5 8 N/A
6:15 am 06:15 Cloudy with Light Rain 69 20.8 66 18.9 89 89 N N/A 30.03 1017 5 8 N/A
6:35 am 06:35 Cloudy with Light Rain 69 20.8 66 18.7 88 88 N N/A 30.03 1017 10 16 N/A
6:55 am 06:55 Mostly Cloudy with Light Rain 69 20.8 66 18.7 88 88 ENE 3 6 30.03 1017 7 11 N/A
7:15 am 07:15 Partly Cloudy with Drizzle 69 20.8 66 18.7 88 88 ESE 6 9 30.03 1017 7 11 N/A
7:35 am 07:35 Mostly Cloudy 69 20.8 66 18.9 89 89 N N/A 30.03 1017 7 11 N/A
7:55 am 07:55 Mostly Cloudy 69 20.8 66 18.7 88 88 E 5 7 30.03 1017 10 16 N/A
8:15 am 08:15 Partly Cloudy 72 22.2 68 19.9 87 87 ESE 3 6 30.00 1016 10 16 N/A
8:35 am 08:35 Mostly Cloudy 74 23.6 70 21.2 86 86 SE 5 7 30.00 1016 10 16 N/A
8:55 am 08:55 Partly Cloudy 74 23.6 70 21.1 86 86 S 5 7 30.00 1016 10 16 N/A
9:15 am 09:15 Mostly Cloudy 74 23.6 69 20.7 84 84 SSE 6 9 30.00 1016 10 16 N/A
9:35 am 09:35 Cloudy 74 23.6 69 20.6 83 83 S 8 13 30.00 1016 10 16 N/A
9:55 am 09:55 Cloudy 74 23.6 69 20.6 83 83 SSE 7 11 30.00 1016 10 16 N/A
10:15 am 10:15 Cloudy 74 23.6 69 20.6 83 83 SSE 6 9 30.00 1016 10 16 N/A
10:35 am 10:35 Cloudy 74 23.6 69 20.6 83 83 SSE 5 7 30.00 1016 10 16 N/A
10:55 am 10:55 Cloudy 74 23.6 69 20.5 83 83 SSE 10 17 30.00 1016 10 16 N/A
11:15 am 11:15 Cloudy 74 23.6 69 20.5 83 83 S 6 9 29.97 1015 10 16 N/A
11:35 am 11:35 Cloudy 74 23.6 68 20.2 81 81 S 8 13 29.97 1015 10 16 N/A
11:55 am 11:55 Cloudy 75 23.9 69 20.6 82 82 SSW 9 15 29.97 1015 10 16 N/A
12:15 pm 12:15 Cloudy 77 25.1 71 21.4 80 80 S 8 13 29.97 1015 10 16 N/A
12:35 pm 12:35 Cloudy 77 25.1 70 21.1 79 79 SW 6 9 29.97 1015 10 16 N/A
12:55 pm 12:55 Cloudy 77 25.1 69 20.8 77 77 S 3 6 29.97 1015 10 16 N/A
1:15 pm 13:15 Cloudy 80 26.5 71 21.7 75 75 SW 6 9 29.97 1015 10 16 N/A
1:35 pm 13:35 Cloudy 77 25.1 70 21 78 78 SW 7 11 29.97 1015 10 16 N/A
1:55 pm 13:55 Cloudy 80 26.5 71 21.9 76 76 WSW 6 9 29.94 1014 10 16 N/A
2:15 pm 14:15 Cloudy 80 26.5 72 22.1 77 77 SSW 5 7 29.94 1014 10 16 N/A
2:35 pm 14:35 Cloudy 80 26.5 72 22 76 76 SW 6 9 29.94 1014 10 16 N/A
2:55 pm 14:55 Cloudy 80 26.5 72 22.1 77 77 N N/A 29.94 1014 10 16 N/A
3:15 pm 15:15 Cloudy 80 26.5 71 21.5 74 74 N N/A 29.94 1014 10 16 N/A
3:35 pm 15:35 Cloudy 80 26.5 71 21.5 74 74 N N/A 29.94 1014 10 16 N/A
3:55 pm 15:55 Mostly Cloudy 81 27.2 72 22 73 73 N N/A 29.91 1013 10 16 N/A
4:15 pm 16:15 Partly Cloudy 82 28 72 22.4 72 72 N N/A 29.88 1012 10 16 N/A
4:35 pm 16:35 Partly Cloudy 83 28.6 72 22.2 68 68 NNE 3 6 29.88 1012 10 16 N/A
4:55 pm 16:55 Mostly Cloudy 83 28.3 72 22 69 69 N N/A 29.85 1011 10 16 N/A
5:15 pm 17:15 Partly Cloudy 83 28.1 72 22.1 70 70 N N/A 29.85 1011 10 16 N/A
5:35 pm 17:35 Mostly Cloudy 82 28 71 21.9 70 70 NE 3 6 29.85 1011 10 16 N/A
5:55 pm 17:55 Cloudy with Heavy Rain 81 27.2 73 22.7 76 76 NW 7 11 29.91 1013 7 11 N/A
6:15 pm 18:15 Mostly Cloudy with Light Rain 80 26.5 74 23.5 84 84 NNE 5 7 29.91 1013 4 6 N/A
6:35 pm 18:35 Partly Cloudy 80 26.6 74 23.4 83 83 N N/A 29.91 1013 10 16 N/A
6:55 pm 18:55 Partly Cloudy 81 27.2 74 23.1 78 78 N N/A 29.85 1011 10 16 N/A
7:15 pm 19:15 Sunny 82 28 73 23 74 74 NNW 5 7 29.85 1011 10 16 N/A
7:35 pm 19:35 Sunny 82 27.9 73 22.6 73 73 NNW 5 7 29.85 1011 10 16 N/A
7:55 pm 19:55 Sunny 81 27.2 73 22.8 77 77 N 6 9 29.85 1011 10 16 N/A
8:15 pm 20:15 Sunny 80 26.5 72 22.3 78 78 N 5 7 29.85 1011 10 16 N/A
8:35 pm 20:35 Sunny 80 26.5 73 22.6 79 79 N 3 6 29.91 1013 10 16 N/A
8:55 pm 20:55 Sunny 77 25.1 71 21.6 81 81 N 5 7 29.91 1013 10 16 N/A
9:15 pm 21:15 Partly Cloudy 77 25.1 71 21.4 80 80 N 6 9 29.91 1013 10 16 N/A
9:35 pm 21:35 Clear 76 24.6 69 20.7 79 79 N 7 11 29.91 1013 10 16 N/A
9:55 pm 21:55 Clear 74 23.6 69 20.3 82 82 N 5 7 29.91 1013 10 16 N/A
10:15 pm 22:15 Clear 74 23.6 69 20.4 82 82 N 5 7 29.94 1014 10 16 N/A
10:55 pm 22:55 Clear 74 23.6 70 21 85 85 NNW 3 6 29.94 1014 10 16 N/A
11:15 pm 23:15 Clear 73 22.6 68 20.2 86 86 N 5 7 29.94 1014 10 16 N/A
11:35 pm 23:35 Clear 71 21.6 67 19.3 87 87 N 5 7 29.94 1014 10 16 N/A
11:55 pm 23:55 Clear 70 20.9 66 18.7 87 87 N N/A 29.94 1014 10 16 N/A

Powered by AerisWeather